Regional Weather Roundup
Issued by NWS

Home | Current Version | Previous Version | Graphics & Text | Print | Product List | Glossary On
Versions: 1 2 3 4 5 6 7 8 9 10 11 12 13 14 15 16 17 18 19 20 21 22 23 24 25 26 27 28 29 30 31 32 33 34 35 36 37 38 39 40 41 42 43 44 45 46 47 48 49 50
000
ASUS45 KSLC 292010
RWRUT

UTAH REGIONAL WEATHER ROUNDUP
NATIONAL WEATHER SERVICE SALT LAKE CITY UT
200 PM MDT SAT AUG 29 2015

UTZ001>011-023>025-292100-

NORTHERN UTAH

CITY           SKY/WX    TMP DP  RH WIND       PRES   REMARKS
BRIGHAM CITY   CLOUDY    93  33  12 S15       30.02F
HILL AFB       MOSUNNY   92  44  19 S15       30.06F
LOGAN          SUNNY     91  42  18 SW13      30.03F
OGDEN          CLOUDY    94  41  16 S16G23    30.03F HX  90
PROVO AIRPORT  PTSUNNY   91  46  21 VRB5      30.07F
SALT LAKE CITY CLOUDY    93  41  16 S17G29    30.01F
VERNAL         SUNNY     86  37  17 S5        30.18F
WENDOVER       PTSUNNY   95  43  16 S18       29.97F HX  91
HEBER CITY     PTSUNNY   90  36  14 SW17      30.15F
WEST JORDAN    SUNNY     93  45  18 SE18      30.06F

$$

UTZ012>022-026-027-292100-

SOUTHERN/CENTRAL UTAH

CITY           SKY/WX    TMP DP  RH WIND       PRES   REMARKS
BLANDING       SUNNY     86  41  20 SE7       30.34F
BRYCE CANYON   MOSUNNY   78  41  26 VRB7G24   30.38F
CEDAR CITY     MOSUNNY   89  39  17 SW22G28   30.17F
DELTA          MOSUNNY   94  36  13 S13G26    30.08F
HANKSVILLE     SUNNY     90  34  13 CALM      30.15F
MILFORD        MOSUNNY   94  43  17 S17G28    30.09F HX  90
MOAB/CYNLANDS  SUNNY     92  38  15 SE7       30.13F
PRICE          SUNNY     86  34  15 S8        30.24F
ST GEORGE      MOCLDY    99  52  20 W6        29.97F HX  96

$$

REGIONAL REPORTS     COLORADO/ARIZONA

CITY           SKY/WX    TMP DP  RH WIND       PRES   REMARKS
CRAIG, CO      SUNNY     86  27  11 CALM      30.25F
GRAND JUNCTION SUNNY     87  42  20 SE3       30.17F
RIFLE          MOSUNNY   86  39  19 W10       30.21F
MONTROSE       SUNNY     86  42  21 N9        30.25F
CORTEZ         SUNNY     85  40  20 VRB3      30.26F
PAGE, AZ       SUNNY     92  42  17 N8        30.11F
GRAND CANYON   MOSUNNY   84  38  19 SW12G20   30.30F
KINGMAN        MOSUNNY   95  51  22 SE16      30.04S HX  92
FLAGSTAFF      MOSUNNY   77  43  29 SE5       30.34F

$$

REGIONAL REPORTS    NEVADA/IDAHO/WYOMING

CITY           SKY/WX    TMP DP  RH WIND       PRES   REMARKS
LAS VEGAS, NV  MOSUNNY  106  46  13 SW16G24   29.85F HX 102
ELY            PTSUNNY   86  42  21 S22G31    30.16F
ELKO           PTSUNNY   91  39  16 W16G24    29.99F
POCATELLO, ID  SUNNY     94  40  15 S18G29    29.98F HX  90
EVANSTON, WY   MOSUNNY   85  36  17 SW20G28   30.26F
ROCK SPRINGS   SUNNY     85  30  13 W10G21    30.24F
KEMMERER       PTSUNNY   86  30  13 SW16G28   30.27F

$$


USA.gov is the U.S. government's official web portal to all federal, state and local government web resources and services.